GW1883 Weather Reports


time (UTC)temp
F
wind
direction
speed
knots
gust
knots
rain 1hr
in
rain 24hr
in
rain mn
in
humidity
%
barometer
mb
20260506150703 78 275 1.7 8.7 0.00 0.00 0.00 71 1017.1
20260506150604 78 84 2.6 8.7 0.00 0.00 0.00 69 1017.1
20260506150506 78 77 3.5 8.7 0.00 0.00 0.00 69 1017.2
20260506150403 77 178 4.3 8.7 0.00 0.00 0.00 68 1017.0
20260506150305 77 220 4.3 8.7 0.00 0.00 0.00 69 1017.1
20260506150205 77 165 3.5 8.7 0.00 0.00 0.00 69 1017.1
20260506150104 77 140 5.2 8.7 0.00 0.00 0.00 68 1017.1
20260506150008 77 180 4.3 8.7 0.00 0.00 0.00 68 1017.1
20260506145904 77 155 4.3 7.0 0.00 0.00 0.00 69 1017.1
20260506145803 77 195 4.3 7.8 0.00 0.00 0.00 69 1017.0
20260506145704 77 139 4.3 7.8 0.00 0.00 0.00 69 1017.0
20260506145603 77 101 3.5 7.8 0.00 0.00 0.00 70 1017.0
20260506145506 77 169 2.6 8.7 0.00 0.00 0.00 70 1017.0
20260506145405 77 188 2.6 8.7 0.00 0.00 0.00 70 1017.0
20260506145305 77 190 2.6 8.7 0.00 0.00 0.00 71 1017.0
20260506145205 77 122 2.6 8.7 0.00 0.00 0.00 70 1017.0
20260506145103 77 151 2.6 8.7 0.00 0.00 0.00 70 1017.0
20260506145007 77 206 1.7 8.7 0.00 0.00 0.00 71 1016.9
20260506144803 76 150 2.6 9.6 0.00 0.00 0.00 70 1016.9
20260506144703 76 180 4.3 9.6 0.00 0.00 0.00 69 1016.9
20260506144603 76 215 3.5 9.6 0.00 0.00 0.00 69 1016.9
20260506144506 76 221 3.5 9.6 0.00 0.00 0.00 70 1016.9
20260506144403 76 210 4.3 9.6 0.00 0.00 0.00 69 1016.8
20260506144304 76 196 5.2 9.6 0.00 0.00 0.00 69 1016.9
20260506144103 76 182 4.3 14.8 0.00 0.00 0.00 69 1016.9
20260506144005 76 157 6.1 14.8 0.00 0.00 0.00 69 1016.9
20260506143904 76 175 5.2 14.8 0.00 0.00 0.00 69 1016.9
20260506143804 76 169 5.2 14.8 0.00 0.00 0.00 69 1016.9
20260506143604 76 161 5.2 14.8 0.00 0.00 0.00 68 1016.8
20260506143505 76 158 5.2 14.8 0.00 0.00 0.00 68 1016.8
20260506143303 76 190 6.1 15.6 0.00 0.00 0.00 69 1016.7
20260506143205 76 205 4.3 8.7 0.00 0.00 0.00 70 1016.7
20260506143104 76 226 3.5 8.7 0.00 0.00 0.00 70 1016.7
20260506143007 76 194 3.5 8.7 0.00 0.00 0.00 69 1016.7
20260506142903 76 200 4.3 8.7 0.00 0.00 0.00 69 1016.7
20260506142804 76 196 5.2 10.4 0.00 0.00 0.00 68 1016.7
20260506142703 76 195 5.2 10.4 0.00 0.00 0.00 69 1016.7
20260506142603 76 157 4.3 10.4 0.00 0.00 0.00 71 1016.6
20260506142506 76 180 4.3 12.2 0.00 0.00 0.00 70 1016.5
20260506142306 75 182 3.5 12.2 0.00 0.00 0.00 70 1016.5
20260506142204 75 119 5.2 12.2 0.00 0.00 0.00 70 1016.5
20260506142103 75 209 7.0 12.2 0.00 0.00 0.00 70 1016.5
20260506142005 75 117 6.1 12.2 0.00 0.00 0.00 70 1016.6
20260506141904 75 200 4.3 12.2 0.00 0.00 0.00 71 1016.5
20260506141803 75 193 6.1 12.2 0.00 0.00 0.00 72 1016.5
20260506141704 75 131 6.1 12.2 0.00 0.00 0.00 71 1016.6
20260506141404 74 129 3.5 7.8 0.00 0.00 0.00 72 1016.6
20260506141303 74 144 3.5 7.8 0.00 0.00 0.00 71 1016.5
20260506141203 74 209 4.3 7.8 0.00 0.00 0.00 71 1016.6
20260506141103 74 240 4.3 7.8 0.00 0.00 0.00 71 1016.7
20260506141006 74 186 3.5 7.8 0.00 0.00 0.00 72 1016.6
20260506140903 74 101 4.3 7.8 0.00 0.00 0.00 72 1016.6
20260506140805 74 165 4.3 7.8 0.00 0.00 0.00 72 1016.6
20260506140704 74 186 3.5 7.8 0.00 0.00 0.00 72 1016.6
20260506140604 74 186 3.5 7.8 0.00 0.00 0.00 72 1016.6
20260506140505 74 173 4.3 7.8 0.00 0.00 0.00 72 1016.6
20260506140403 74 201 4.3 7.8 0.00 0.00 0.00 72 1016.6
20260506140304 74 182 4.3 7.8 0.00 0.00 0.00 73 1016.6
20260506140204 74 175 6.1 7.8 0.00 0.00 0.00 73 1016.6
20260506140104 74 171 5.2 9.6 0.00 0.00 0.00 73 1016.6
20260506140008 74 178 4.3 9.6 0.00 0.00 0.00 74 1016.6
20260506135904 74 166 4.3 7.8 0.00 0.00 0.00 74 1016.7
20260506135803 74 168 4.3 7.8 0.00 0.00 0.00 73 1016.7
20260506135704 74 147 3.5 7.8 0.00 0.00 0.00 74 1016.7
20260506135405 73 191 3.5 7.8 0.00 0.00 0.00 74 1016.7
20260506135306 73 171 4.3 8.7 0.00 0.00 0.00 74 1016.7
20260506135204 73 209 4.3 7.8 0.00 0.00 0.00 76 1016.7
20260506135104 73 197 2.6 7.8 0.00 0.00 0.00 75 1016.7
20260506135006 73 205 2.6 7.8 0.00 0.00 0.00 75 1016.8
20260506134603 73 133 3.5 8.7 0.00 0.00 0.00 75 1016.6
20260506134506 73 227 4.3 8.7 0.00 0.00 0.00 75 1016.6
20260506134304 73 212 3.5 8.7 0.00 0.00 0.00 75 1016.5
20260506134205 73 166 4.3 8.7 0.00 0.00 0.00 74 1016.5
20260506134103 73 213 4.3 8.7 0.00 0.00 0.00 74 1016.5
20260506134006 73 64 5.2 9.6 0.00 0.00 0.00 74 1016.6
20260506133902 73 213 6.1 10.4 0.00 0.00 0.00 74 1016.6
20260506133803 73 181 4.3 8.7 0.00 0.00 0.00 75 1016.6
20260506133704 73 194 3.5 8.7 0.00 0.00 0.00 75 1016.5
20260506133604 73 202 3.5 8.7 0.00 0.00 0.00 76 1016.5
20260506133506 73 182 4.3 8.7 0.00 0.00 0.00 76 1016.5
20260506133403 73 191 4.3 8.7 0.00 0.00 0.00 76 1016.6
20260506133304 73 198 4.3 8.7 0.00 0.00 0.00 76 1016.6
20260506133204 73 178 3.5 8.7 0.00 0.00 0.00 76 1016.5
20260506133104 73 167 2.6 13.9 0.00 0.00 0.00 76 1016.5
20260506133006 73 198 3.5 13.9 0.00 0.00 0.00 77 1016.5
20260506132905 73 192 4.3 13.9 0.00 0.00 0.00 76 1016.5
20260506132803 73 169 4.3 13.9 0.00 0.00 0.00 76 1016.5
20260506132704 73 177 4.3 13.9 0.00 0.00 0.00 77 1016.5
20260506132603 73 152 5.2 13.9 0.00 0.00 0.00 76 1016.5
20260506132506 73 159 5.2 13.9 0.00 0.00 0.00 76 1016.5
20260506132306 72 163 5.2 13.9 0.00 0.00 0.00 78 1016.5
20260506132103 72 178 5.2 11.3 0.00 0.00 0.00 78 1016.4
20260506132006 72 140 6.1 11.3 0.00 0.00 0.00 77 1016.4
20260506131603 72 175 4.3 13.9 0.00 0.00 0.00 78 1016.4
20260506131505 71 211 4.3 13.9 0.00 0.00 0.00 79 1016.4
20260506131404 71 210 4.3 13.9 0.00 0.00 0.00 79 1016.3
20260506131305 71 140 5.2 13.9 0.00 0.00 0.00 78 1016.3
20260506131203 71 168 7.0 13.9 0.00 0.00 0.00 79 1016.3
20260506131103 71 169 6.1 13.0 0.00 0.00 0.00 82 1016.3
20260506131006 71 178 3.5 7.8 0.00 0.00 0.00 81 1016.3
20260506130903 71 165 3.5 7.8 0.00 0.00 0.00 81 1016.3
20260506130804 70 187 4.3 7.8 0.00 0.00 0.00 82 1016.3
20260506130705 70 254 3.5 7.8 0.00 0.00 0.00 83 1016.3
20260506130604 70 225 3.5 7.8 0.00 0.00 0.00 82 1016.3
20260506130508 70 165 4.3 7.8 0.00 0.00 0.00 83 1016.3
20260506130404 70 144 2.6 7.8 0.00 0.00 0.00 83 1016.2
20260506130204 69 166 4.3 7.8 0.00 0.00 0.00 84 1016.2
20260506130104 69 213 4.3 7.8 0.00 0.00 0.00 84 1016.2
20260506130007 69 187 4.3 7.0 0.00 0.00 0.00 84 1016.2
20260506125904 69 211 4.3 7.0 0.00 0.00 0.00 85 1016.3
20260506125803 69 175 3.5 7.0 0.00 0.00 0.00 85 1016.3
20260506125704 69 215 3.5 7.0 0.00 0.00 0.00 87 1016.3
20260506125603 69 164 2.6 6.1 0.00 0.00 0.00 87 1016.3
20260506125506 69 157 1.7 7.0 0.00 0.00 0.00 87 1016.3
20260506125403 68 200 0.9 7.8 0.00 0.00 0.00 87 1016.3
20260506125104 68 197 3.5 7.8 0.00 0.00 0.00 88 1016.2
20260506125005 68 202 3.5 7.8 0.00 0.00 0.00 87 1016.2
20260506124804 68 186 3.5 7.8 0.00 0.00 0.00 88 1016.2
20260506124703 68 181 4.3 7.8 0.00 0.00 0.00 88 1016.3
20260506124603 67 211 4.3 7.8 0.00 0.00 0.00 88 1016.3
20260506124506 67 217 3.5 5.2 0.00 0.00 0.00 89 1016.3
20260506124403 67 198 2.6 6.1 0.00 0.00 0.00 89 1016.3
20260506124303 67 123 2.6 6.1 0.00 0.00 0.00 89 1016.4
20260506124203 67 224 2.6 6.1 0.00 0.00 0.00 90 1016.3
20260506124103 67 192 2.6 6.1 0.00 0.00 0.00 90 1016.2
20260506124005 67 141 2.6 6.1 0.00 0.00 0.00 90 1016.3
20260506123903 67 177 1.7 6.1 0.00 0.00 0.00 90 1016.3
20260506123804 67 173 2.6 6.1 0.00 0.00 0.00 90 1016.3
20260506123703 66 166 2.6 6.1 0.00 0.00 0.00 90 1016.3
20260506123604 66 112 2.6 4.3 0.00 0.00 0.00 90 1016.3
20260506123505 66 216 2.6 4.3 0.00 0.00 0.00 90 1016.3
20260506123404 66 175 1.7 5.2 0.00 0.00 0.00 91 1016.2
20260506123304 66 177 1.7 5.2 0.00 0.00 0.00 91 1016.3
20260506123103 66 136 2.6 5.2 0.00 0.00 0.00 91 1016.2
20260506123006 66 154 2.6 5.2 0.00 0.00 0.00 91 1016.3
20260506122804 66 197 2.6 4.3 0.00 0.00 0.00 92 1016.3
20260506122703 65 147 1.7 4.3 0.00 0.00 0.00 92 1016.2
20260506122603 65 163 1.7 4.3 0.00 0.00 0.00 92 1016.3
20260506122506 65 173 1.7 4.3 0.00 0.00 0.00 92 1016.2
20260506122403 65 166 1.7 4.3 0.00 0.00 0.00 92 1016.2
20260506122306 65 180 2.6 4.3 0.00 0.00 0.00 92 1016.2
20260506122203 65 165 2.6 4.3 0.00 0.00 0.00 92 1016.2
20260506122103 65 169 2.6 4.3 0.00 0.00 0.00 92 1016.1
20260506122005 65 181 1.7 4.3 0.00 0.00 0.00 92 1016.2
20260506121903 65 208 2.6 5.2 0.00 0.00 0.00 93 1016.2
20260506121804 65 180 1.7 6.1 0.00 0.00 0.00 93 1016.2
20260506121703 64 194 1.7 6.1 0.00 0.00 0.00 93 1016.2
20260506121603 64 181 2.6 6.1 0.00 0.00 0.00 93 1016.2
20260506121505 64 209 2.6 6.1 0.00 0.00 0.00 93 1016.2
20260506121404 64 209 2.6 6.1 0.00 0.00 0.00 93 1016.2
20260506121303 64 159 2.6 6.1 0.00 0.00 0.00 93 1016.2
20260506121205 64 165 3.5 6.1 0.00 0.00 0.00 93 1016.2
20260506120903 64 223 1.7 4.3 0.00 0.00 0.00 94 1016.2
20260506120804 63 189 1.7 3.5 0.00 0.00 0.00 94 1016.1
20260506120704 63 147 1.7 3.5 0.00 0.00 0.00 94 1016.1
20260506120603 63 200 1.7 4.3 0.00 0.00 0.00 94 1016.2
20260506120505 63 157 1.7 3.5 0.00 0.00 0.00 94 1016.1
20260506120404 63 198 1.7 3.5 0.00 0.00 0.00 94 1016.1
20260506120303 63 186 1.7 3.5 0.00 0.00 0.00 94 1016.2
20260506120203 63 177 1.7 4.3 0.00 0.00 0.00 94 1016.2
20260506120104 63 211 1.7 4.3 0.00 0.00 0.00 95 1016.2
20260506120006 63 207 1.7 4.3 0.00 0.00 0.00 94 1016.3
20260506115903 63 160 1.7 4.3 0.00 0.00 0.00 95 1016.2
20260506115804 62 170 0.9 4.3 0.00 0.00 0.00 95 1016.2
20260506115704 62 168 0.9 4.3 0.00 0.00 0.00 95 1016.3
20260506115603 62 160 0.9 4.3 0.00 0.00 0.00 95 1016.2
20260506115506 62 160 0.9 4.3 0.00 0.00 0.00 95 1016.2
20260506115403 62 173 1.7 4.3 0.00 0.00 0.00 95 1016.2
20260506115306 62 207 1.7 4.3 0.00 0.00 0.00 95 1016.2
20260506115203 62 167 1.7 4.3 0.00 0.00 0.00 95 1016.2
20260506115103 62 161 1.7 4.3 0.00 0.00 0.00 95 1016.2
20260506115006 62 167 1.7 4.3 0.00 0.00 0.00 95 1016.1
20260506114904 62 210 0.9 4.3 0.00 0.00 0.00 95 1016.2
20260506114803 62 170 0.9 2.6 0.00 0.00 0.00 95 1016.2
20260506114703 61 184 1.7 2.6 0.00 0.00 0.00 95 1016.1
20260506114604 61 173 1.7 2.6 0.00 0.00 0.00 95 1016.1
20260506114506 61 171 0.9 2.6 0.00 0.00 0.00 95 1016.1
20260506114403 61 215 0.9 2.6 0.00 0.00 0.00 95 1016.1
20260506114303 61 223 1.7 2.6 0.00 0.00 0.00 95 1016.1
20260506114204 61 180 0.9 2.6 0.00 0.00 0.00 95 1016.1
20260506114103 61 206 0.9 3.5 0.00 0.00 0.00 95 1016.1
20260506114006 61 166 1.7 3.5 0.00 0.00 0.00 96 1016.1
20260506113904 61 169 0.9 3.5 0.00 0.00 0.00 96 1016.1
20260506113803 61 190 0.9 3.5 0.00 0.00 0.00 96 1016.0
20260506113703 61 198 0.9 3.5 0.00 0.00 0.00 96 1016.1
20260506113403 61 200 1.7 3.5 0.00 0.00 0.00 95 1016.0
20260506113303 61 200 1.7 3.5 0.00 0.00 0.00 95 1016.0
20260506113204 60 207 1.7 3.5 0.00 0.00 0.00 96 1016.1
20260506112904 60 182 0.9 2.6 0.00 0.00 0.00 96 1016.0
20260506112803 60 181 0.9 1.7 0.00 0.00 0.00 96 1016.1
20260506112703 60 181 0.0 1.7 0.00 0.00 0.00 96 1016.1
20260506112603 60 181 0.9 1.7 0.00 0.00 0.00 96 1016.1
20260506112505 60 181 0.9 1.7 0.00 0.00 0.00 95 1016.0
20260506112404 60 181 0.9 1.7 0.00 0.00 0.00 95 1016.0
20260506112306 60 181 0.0 1.7 0.00 0.00 0.00 95 1016.0
20260506112103 60 181 0.9 1.7 0.00 0.00 0.00 95 1015.9
20260506112006 60 181 0.9 2.6 0.00 0.00 0.00 95 1015.9
20260506111903 60 167 0.9 2.6 0.00 0.00 0.00 95 1015.9
20260506111806 60 167 0.9 2.6 0.00 0.00 0.00 95 1015.9
20260506111704 60 167 0.9 2.6 0.00 0.00 0.00 96 1015.8
20260506111604 60 167 0.9 2.6 0.00 0.00 0.00 96 1015.8
20260506111506 60 167 0.0 2.6 0.00 0.00 0.00 96 1015.8
20260506111404 60 167 0.9 2.6 0.00 0.00 0.00 96 1015.9
20260506111303 60 167 0.9 2.6 0.00 0.00 0.00 96 1015.9
20260506111204 60 167 0.9 2.6 0.00 0.00 0.00 96 1016.0
20260506110903 59 190 0.9 2.6 0.00 0.00 0.00 96 1015.9
20260506110804 59 171 0.9 2.6 0.00 0.00 0.00 96 1015.9
20260506110704 59 184 0.9 2.6 0.00 0.00 0.00 96 1015.9
20260506110603 59 184 0.9 3.5 0.00 0.00 0.00 96 1015.9
20260506110505 59 184 0.9 3.5 0.00 0.00 0.00 96 1016.0
20260506110404 59 205 0.9 3.5 0.00 0.00 0.00 96 1015.9
20260506110303 59 183 1.7 3.5 0.00 0.00 0.00 96 1015.9
20260506110205 59 189 1.7 3.5 0.00 0.00 0.00 96 1015.9
20260506110104 59 199 0.9 3.5 0.00 0.00 0.00 96 1015.9
20260506110005 59 219 1.7 3.5 0.00 0.00 0.00 96 1015.9
20260506105802 59 201 1.7 3.5 0.00 0.00 0.00 96 1016.0
20260506105702 59 208 0.9 2.6 0.00 0.00 0.00 96 1015.8
20260506105603 59 207 1.7 2.6 0.00 0.00 0.00 96 1015.9
20260506105506 59 191 0.9 2.6 0.00 0.00 0.00 96 1015.9
20260506105403 59 223 1.7 2.6 0.00 0.00 0.00 96 1015.9
20260506105305 59 182 1.7 2.6 0.00 0.00 0.00 96 1015.9
20260506105203 59 188 0.9 2.6 0.00 0.00 0.00 96 1015.8
20260506104902 59 196 0.9 2.6 0.00 0.00 0.00 96 1015.9
20260506104801 59 204 0.9 2.6 0.00 0.00 0.00 96 1015.8
20260506104702 58 186 0.9 2.6 0.00 0.00 0.00 96 1015.8
20260506104302 58 196 0.0 0.0 0.00 0.00 0.00 96 1015.8
20260506104202 58 209 0.0 0.0 0.00 0.00 0.00 96 1015.9
20260506104102 58 223 0.0 0.0 0.00 0.00 0.00 96 1015.8
20260506104006 58 223 0.0 0.0 0.00 0.00 0.00 96 1015.8
20260506103902 58 200 0.0 0.0 0.00 0.00 0.00 96 1015.8
20260506103803 58 200 0.0 0.0 0.00 0.00 0.00 96 1015.7
20260506103703 58 200 0.0 0.0 0.00 0.00 0.00 96 1015.7
20260506103603 58 200 0.0 0.0 0.00 0.00 0.00 95 1015.7
20260506103505 58 200 0.0 0.0 0.00 0.00 0.00 95 1015.8
20260506103402 58 184 0.0 0.0 0.00 0.00 0.00 95 1015.9
20260506103202 58 190 0.0 0.0 0.00 0.00 0.00 95 1015.9
20260506103103 58 190 0.0 0.0 0.00 0.00 0.00 95 1015.9
20260506103007 58 190 0.0 0.0 0.00 0.00 0.00 95 1015.9
20260506102902 58 190 0.0 0.0 0.00 0.00 0.00 95 1016.0
20260506102802 58 175 0.0 0.0 0.00 0.00 0.00 95 1015.9
20260506102703 58 209 0.0 0.0 0.00 0.00 0.00 95 1015.9
20260506102602 58 209 0.0 0.0 0.00 0.00 0.00 95 1015.9
20260506102505 58 209 0.0 0.0 0.00 0.00 0.00 95 1015.8
20260506102402 58 209 0.0 0.0 0.00 0.00 0.00 95 1015.8
20260506102305 58 209 0.0 0.0 0.00 0.00 0.00 95 1015.7
20260506102103 58 209 0.0 0.0 0.00 0.00 0.00 95 1015.7
20260506102006 58 209 0.0 0.0 0.00 0.00 0.00 95 1015.7
20260506101902 58 209 0.0 0.0 0.00 0.00 0.00 95 1015.8
20260506101802 58 209 0.0 0.0 0.00 0.00 0.00 95 1015.8
20260506101702 58 209 0.0 0.0 0.00 0.00 0.00 95 1015.8
20260506101602 58 209 0.0 0.0 0.00 0.00 0.00 95 1015.7
20260506101506 58 209 0.0 0.0 0.00 0.00 0.00 95 1015.7
20260506101403 58 209 0.0 0.0 0.00 0.00 0.00 95 1015.6
20260506101302 58 209 0.0 0.0 0.00 0.00 0.00 95 1015.7
20260506101202 57 209 0.0 0.0 0.00 0.00 0.00 95 1015.7
20260506101102 57 209 0.0 0.0 0.00 0.00 0.00 95 1015.7
20260506101006 57 209 0.0 0.0 0.00 0.00 0.00 95 1015.7
20260506100802 57 209 0.0 0.0 0.00 0.00 0.00 95 1015.7
20260506100703 57 209 0.0 0.0 0.00 0.00 0.00 95 1015.7
20260506100603 57 209 0.0 0.0 0.00 0.00 0.00 95 1015.7
20260506100505 57 209 0.0 0.0 0.00 0.00 0.00 95 1015.6
20260506100402 57 209 0.0 0.0 0.00 0.00 0.00 95 1015.7
20260506100303 57 209 0.0 0.0 0.00 0.00 0.00 95 1015.7
20260506100203 57 209 0.0 0.0 0.00 0.00 0.00 95 1015.6
20260506100006 57 209 0.0 0.0 0.00 0.00 0.00 95 1015.6
20260506095902 57 209 0.0 0.0 0.00 0.00 0.00 95 1015.6
20260506095803 57 209 0.0 0.0 0.00 0.00 0.00 95 1015.5
20260506095702 57 209 0.0 0.0 0.00 0.00 0.00 95 1015.5
20260506095603 57 209 0.0 0.0 0.00 0.00 0.00 95 1015.5
20260506095505 57 209 0.0 0.0 0.00 0.00 0.00 94 1015.6
20260506095404 57 209 0.0 0.0 0.00 0.00 0.00 95 1015.6
20260506095305 57 209 0.0 0.0 0.00 0.00 0.00 95 1015.6
20260506095203 57 209 0.0 0.0 0.00 0.00 0.00 94 1015.6
20260506094902 57 209 0.0 0.0 0.00 0.00 0.00 94 1015.7
20260506094803 57 209 0.0 0.0 0.00 0.00 0.00 95 1015.6
20260506094702 57 209 0.0 0.0 0.00 0.00 0.00 95 1015.7
20260506094603 57 209 0.0 0.0 0.00 0.00 0.00 94 1015.6
20260506094506 57 209 0.0 0.0 0.00 0.00 0.00 94 1015.6
20260506094402 58 209 0.0 0.0 0.00 0.00 0.00 94 1015.6
20260506094302 58 209 0.0 0.0 0.00 0.00 0.00 94 1015.7
20260506094203 58 209 0.0 0.0 0.00 0.00 0.00 94 1015.8
20260506094102 58 209 0.0 0.0 0.00 0.00 0.00 94 1015.6
20260506094005 58 209 0.0 0.0 0.00 0.00 0.00 94 1015.7
20260506093902 58 209 0.0 0.0 0.00 0.00 0.00 94 1015.6
20260506093802 58 209 0.0 0.0 0.00 0.00 0.00 94 1015.6
20260506093703 58 209 0.0 0.0 0.00 0.00 0.00 94 1015.6
20260506093102 58 209 0.0 0.0 0.00 0.00 0.00 94 1015.7
20260506093004 58 209 0.0 0.0 0.00 0.00 0.00 94 1015.7
20260506092903 58 209 0.0 0.0 0.00 0.00 0.00 94 1015.7
20260506092802 58 209 0.0 0.0 0.00 0.00 0.00 94 1015.7
20260506092703 58 209 0.0 0.0 0.00 0.00 0.00 94 1015.8
20260506092602 58 209 0.0 0.0 0.00 0.00 0.00 94 1015.7
20260506092506 58 209 0.0 0.0 0.00 0.00 0.00 94 1015.7
20260506092403 58 209 0.0 0.0 0.00 0.00 0.00 94 1015.7
20260506092202 58 209 0.0 0.0 0.00 0.00 0.00 94 1015.6
20260506092103 58 209 0.0 0.0 0.00 0.00 0.00 94 1015.7
20260506092006 58 209 0.0 0.0 0.00 0.00 0.00 94 1015.6
20260506091902 58 209 0.0 0.0 0.00 0.00 0.00 94 1015.7
20260506091803 58 209 0.0 0.0 0.00 0.00 0.00 94 1015.7
20260506091702 58 209 0.0 0.0 0.00 0.00 0.00 94 1015.6
20260506091403 58 209 0.0 0.0 0.00 0.00 0.00 94 1015.6
20260506091203 58 209 0.0 0.0 0.00 0.00 0.00 94 1015.7
20260506091102 58 209 0.0 0.0 0.00 0.00 0.00 94 1015.7
20260506091005 58 209 0.0 0.0 0.00 0.00 0.00 94 1015.6
20260506090902 58 209 0.0 0.0 0.00 0.00 0.00 94 1015.6
20260506090802 58 209 0.0 0.0 0.00 0.00 0.00 94 1015.7
20260506090603 58 209 0.0 0.0 0.00 0.00 0.00 95 1015.7
20260506090506 58 209 0.0 0.0 0.00 0.00 0.00 95 1015.8
20260506090403 58 209 0.0 0.0 0.00 0.00 0.00 95 1015.7
20260506090302 58 209 0.0 0.0 0.00 0.00 0.00 95 1015.8
20260506090203 58 218 0.0 0.0 0.00 0.00 0.00 95 1015.7
20260506090006 58 218 0.0 0.0 0.00 0.00 0.00 95 1015.6
20260506085902 58 202 0.0 0.0 0.00 0.00 0.00 95 1015.6
20260506085803 58 186 0.0 0.0 0.00 0.00 0.00 95 1015.6
20260506085702 58 209 0.0 0.0 0.00 0.00 0.00 95 1015.5
20260506085602 58 188 0.0 0.0 0.00 0.00 0.00 95 1015.7
20260506085505 58 177 0.0 0.0 0.00 0.00 0.00 94 1015.6
20260506085403 58 193 0.0 0.0 0.00 0.00 0.00 94 1015.7
20260506085305 58 179 0.0 0.0 0.00 0.00 0.00 94 1015.6
20260506085203 58 204 0.0 0.0 0.00 0.00 0.00 94 1015.7
20260506085102 58 190 0.0 0.0 0.00 0.00 0.00 94 1015.7
20260506085005 58 202 0.0 0.0 0.00 0.00 0.00 94 1015.7
20260506084902 58 201 0.0 0.0 0.00 0.00 0.00 94 1015.8
20260506084801 58 201 0.0 0.0 0.00 0.00 0.00 94 1015.8
20260506084702 58 201 0.0 0.0 0.00 0.00 0.00 94 1015.8
20260506084602 58 201 0.0 0.0 0.00 0.00 0.00 94 1015.8
20260506084505 58 201 0.0 0.0 0.00 0.00 0.00 94 1015.9
20260506084402 58 201 0.0 0.0 0.00 0.00 0.00 94 1015.9
20260506084102 58 201 0.0 0.0 0.00 0.00 0.00 94 1016.1
20260506084005 58 201 0.0 0.0 0.00 0.00 0.00 94 1016.1
20260506083903 58 201 0.0 0.0 0.00 0.00 0.00 94 1016.2
20260506083802 58 201 0.0 0.0 0.00 0.00 0.00 94 1016.2
20260506083702 58 201 0.0 0.0 0.00 0.00 0.00 94 1016.2
20260506083603 58 201 0.0 0.0 0.00 0.00 0.00 94 1016.2
20260506083505 58 201 0.0 0.0 0.00 0.00 0.00 94 1016.1
20260506083402 58 201 0.0 0.0 0.00 0.00 0.00 94 1016.1
20260506083303 58 201 0.0 0.0 0.00 0.00 0.00 94 1016.1
20260506082802 58 202 0.0 0.0 0.00 0.00 0.00 94 1016.0
20260506082703 58 202 0.0 0.0 0.00 0.00 0.00 94 1016.1
20260506082602 58 202 0.0 0.0 0.00 0.00 0.00 94 1016.0
20260506082505 58 202 0.0 0.0 0.00 0.00 0.00 94 1016.1
20260506082202 58 183 0.0 0.0 0.00 0.00 0.00 94 1015.9
20260506082102 58 183 0.0 0.0 0.00 0.00 0.00 94 1015.9
20260506082005 58 183 0.0 0.0 0.00 0.00 0.00 94 1015.8
20260506081902 58 183 0.0 0.0 0.00 0.00 0.00 94 1015.8
20260506081803 58 183 0.0 0.0 0.00 0.00 0.00 94 1015.9
20260506081702 58 183 0.0 0.0 0.00 0.00 0.00 94 1015.8
20260506081603 58 183 0.0 0.0 0.00 0.00 0.00 94 1015.9
20260506081506 58 183 0.0 0.0 0.00 0.00 0.00 94 1015.8
20260506081402 58 183 0.0 0.0 0.00 0.00 0.00 94 1016.0
20260506081304 58 183 0.0 0.9 0.00 0.00 0.00 94 1015.9
20260506081203 58 183 0.0 0.9 0.00 0.00 0.00 94 1015.9
20260506081102 58 183 0.0 1.7 0.00 0.00 0.00 94 1015.9
20260506081006 58 183 0.0 1.7 0.00 0.00 0.00 94 1015.8
20260506080902 58 183 0.0 1.7 0.00 0.00 0.00 94 1015.8
20260506080802 58 183 0.0 1.7 0.00 0.00 0.00 94 1015.8
20260506080702 58 183 0.0 1.7 0.00 0.00 0.00 94 1015.7
20260506080602 58 183 0.0 1.7 0.00 0.00 0.00 94 1015.7
20260506080504 58 183 0.0 1.7 0.00 0.00 0.00 94 1015.8
20260506080402 58 183 0.9 1.7 0.00 0.00 0.00 94 1015.8
20260506080302 58 183 0.9 1.7 0.00 0.00 0.00 94 1015.8
20260506080202 58 183 0.9 1.7 0.00 0.00 0.00 94 1015.7
20260506073505 58 201 0.0 0.0 0.00 0.00 0.00 94 1015.5
20260506073302 58 209 0.0 0.0 0.00 0.00 0.00 94 1015.5
20260506073203 58 209 0.0 0.0 0.00 0.00 0.00 94 1015.5
20260506073103 58 209 0.0 0.0 0.00 0.00 0.00 94 1015.5
20260506073006 58 200 0.0 0.0 0.00 0.00 0.00 94 1015.5
20260506072902 58 196 0.0 0.0 0.00 0.00 0.00 94 1015.4
20260506072802 58 196 0.0 0.0 0.00 0.00 0.00 94 1015.4
20260506072703 58 196 0.0 0.0 0.00 0.00 0.00 94 1015.4
20260506072305 58 219 0.0 0.0 0.00 0.00 0.00 95 1015.4
20260506072202 58 182 0.0 0.0 0.00 0.00 0.00 95 1015.4
20260506072102 58 207 0.0 0.0 0.00 0.00 0.00 95 1015.4
20260506072005 58 207 0.0 0.0 0.00 0.00 0.00 95 1015.4
20260506071903 57 207 0.0 0.0 0.00 0.00 0.00 95 1015.4
20260506071802 57 207 0.0 0.0 0.00 0.00 0.00 95 1015.4
20260506071702 57 207 0.0 0.0 0.00 0.00 0.00 95 1015.5
20260506071602 57 208 0.0 0.0 0.00 0.00 0.00 95 1015.5
20260506071505 57 213 0.0 0.0 0.00 0.00 0.00 95 1015.5
20260506071403 57 188 0.0 0.0 0.00 0.00 0.00 95 1015.4
20260506071301 57 202 0.0 0.0 0.00 0.00 0.00 95 1015.5
20260506071202 57 186 0.0 0.0 0.00 0.00 0.00 95 1015.5
20260506071103 57 184 0.0 0.0 0.00 0.00 0.00 95 1015.5
20260506071005 57 197 0.0 0.0 0.00 0.00 0.00 94 1015.6
20260506070903 57 197 0.0 0.0 0.00 0.00 0.00 94 1015.6
20260506070702 57 227 0.0 0.0 0.00 0.00 0.00 94 1015.6
20260506070602 57 196 0.0 0.0 0.00 0.00 0.00 94 1015.6
20260506070505 57 194 0.0 0.0 0.00 0.00 0.00 94 1015.7
20260506070302 57 191 0.0 0.0 0.00 0.00 0.00 94 1015.6
20260506070204 57 191 0.0 0.0 0.00 0.00 0.00 94 1015.6
20260506062506 57 189 0.0 0.0 0.00 0.00 0.00 94 1015.8
20260506062305 57 190 0.0 0.0 0.00 0.00 0.00 93 1015.8
20260506062203 57 190 0.0 0.0 0.00 0.00 0.00 94 1015.8
20260506062103 57 189 0.0 0.0 0.00 0.00 0.00 93 1015.8
20260506062006 57 189 0.0 0.0 0.00 0.00 0.00 94 1015.8
20260506061902 57 189 0.0 0.0 0.00 0.00 0.00 93 1015.9
20260506061802 57 189 0.0 0.0 0.00 0.00 0.00 93 1015.9
20260506061703 57 190 0.0 0.0 0.00 0.00 0.00 93 1015.8
20260506061602 57 189 0.0 0.0 0.00 0.00 0.00 93 1015.7
20260506061505 57 190 0.0 0.0 0.00 0.00 0.00 93 1015.7
20260506061403 57 189 0.0 0.0 0.00 0.00 0.00 93 1015.8
20260506061302 57 190 0.0 0.0 0.00 0.00 0.00 93 1015.7
20260506061201 57 189 0.0 0.0 0.00 0.00 0.00 93 1015.7
20260506061102 57 167 0.0 0.0 0.00 0.00 0.00 93 1015.7
20260506061006 57 167 0.0 0.0 0.00 0.00 0.00 93 1015.7
20260506060902 57 159 0.0 0.0 0.00 0.00 0.00 93 1015.7
20260506060804 57 159 0.0 0.0 0.00 0.00 0.00 93 1015.7
20260506060604 57 159 0.0 0.0 0.00 0.00 0.00 93 1015.5
20260506060506 57 159 0.0 0.0 0.00 0.00 0.00 93 1015.6
20260506060402 57 159 0.0 0.0 0.00 0.00 0.00 93 1015.5
20260506060303 57 159 0.0 0.0 0.00 0.00 0.00 93 1015.5
20260506051403 58 159 0.0 0.0 0.00 0.00 0.00 91 1016.4
20260506051302 58 159 0.0 0.0 0.00 0.00 0.00 91 1016.4
20260506051202 58 159 0.0 0.0 0.00 0.00 0.00 91 1016.4
20260506051102 58 159 0.0 0.0 0.00 0.00 0.00 91 1016.4
20260506051006 58 159 0.0 0.0 0.00 0.00 0.00 91 1016.4
20260506050903 58 159 0.0 0.0 0.00 0.00 0.00 91 1016.4
20260506050803 58 159 0.0 0.0 0.00 0.00 0.00 91 1016.4
20260506050702 58 159 0.0 0.0 0.00 0.00 0.00 91 1016.4
20260506050603 58 159 0.0 0.0 0.00 0.00 0.00 91 1016.4
20260506050505 58 159 0.0 0.0 0.00 0.00 0.00 91 1016.5
20260506050404 58 159 0.0 0.0 0.00 0.00 0.00 91 1016.4
20260506050202 58 159 0.0 0.0 0.00 0.00 0.00 91 1016.4
20260506044904 58 159 0.0 0.0 0.00 0.00 0.00 90 1016.6
20260506044803 58 159 0.0 0.0 0.00 0.00 0.00 90 1016.6
20260506044704 58 159 0.0 0.0 0.00 0.00 0.00 90 1016.6
20260506044604 58 159 0.0 0.0 0.00 0.00 0.00 90 1016.7
20260506044506 58 159 0.0 0.0 0.00 0.00 0.00 90 1016.7
20260506044404 58 159 0.0 0.0 0.00 0.00 0.00 90 1016.7
20260506044303 58 159 0.0 0.0 0.00 0.00 0.00 90 1016.8
20260506044205 58 159 0.0 0.0 0.00 0.00 0.00 90 1016.8
20260506044103 58 159 0.0 0.0 0.00 0.00 0.00 90 1016.8
20260506044005 58 159 0.0 0.0 0.00 0.00 0.00 90 1016.8
20260506043604 59 159 0.0 0.0 0.00 0.00 0.00 90 1016.8
20260506043506 59 159 0.0 0.0 0.00 0.00 0.00 90 1016.8
20260506043303 59 159 0.0 0.0 0.00 0.00 0.00 90 1017.0
20260506043203 59 159 0.0 0.0 0.00 0.00 0.00 90 1017.0
20260506043103 59 159 0.0 0.0 0.00 0.00 0.00 90 1016.8
20260506043007 59 159 0.0 0.0 0.00 0.00 0.00 89 1016.8
20260506042904 59 159 0.0 0.0 0.00 0.00 0.00 89 1016.7
20260506042804 59 159 0.0 0.0 0.00 0.00 0.00 89 1016.7
20260506042703 59 159 0.0 0.0 0.00 0.00 0.00 89 1016.8
20260506042403 59 159 0.0 0.0 0.00 0.00 0.00 89 1016.9
20260506042305 59 159 0.0 0.0 0.00 0.00 0.00 89 1016.9
20260506042204 59 159 0.0 0.0 0.00 0.00 0.00 89 1016.9
20260506042103 59 159 0.0 0.0 0.00 0.00 0.00 89 1016.8
20260506042006 59 159 0.0 0.0 0.00 0.00 0.00 89 1016.9
20260506041904 59 159 0.0 0.0 0.00 0.00 0.00 89 1016.9
20260506041804 59 159 0.0 0.0 0.00 0.00 0.00 89 1016.9
20260506041704 59 159 0.0 0.0 0.00 0.00 0.00 89 1016.9
20260506041603 59 159 0.0 0.0 0.00 0.00 0.00 89 1016.8
20260506041506 59 159 0.0 0.0 0.00 0.00 0.00 89 1016.8
20260506041103 59 159 0.0 0.0 0.00 0.00 0.00 89 1016.8
20260506041006 59 159 0.0 0.0 0.00 0.00 0.00 89 1016.8
20260506040903 59 159 0.0 0.0 0.00 0.00 0.00 89 1016.7
20260506040804 59 159 0.0 0.0 0.00 0.00 0.00 89 1016.7
20260506040703 59 159 0.0 0.0 0.00 0.00 0.00 89 1016.6
20260506040604 59 159 0.0 0.0 0.00 0.00 0.00 89 1016.7
20260506040505 59 169 0.0 0.0 0.00 0.00 0.00 89 1016.7
20260506040403 59 196 0.0 0.0 0.00 0.00 0.00 89 1016.7
20260506040303 59 196 0.0 0.0 0.00 0.00 0.00 89 1016.7
20260506040204 59 203 0.0 0.0 0.00 0.00 0.00 89 1016.7
20260506040011 59 203 0.0 0.0 0.00 0.00 0.00 89 1016.7
20260506035905 59 203 0.0 0.0 0.00 0.00 0.00 89 1016.8
20260506035804 59 203 0.0 0.0 0.00 0.00 0.00 88 1016.8
20260506035705 59 203 0.0 0.0 0.00 0.00 0.00 88 1016.8
20260506035606 59 203 0.0 0.0 0.00 0.00 0.00 88 1016.8
20260506035506 59 203 0.0 0.0 0.00 0.00 0.00 88 1016.8
20260506035306 59 203 0.0 0.0 0.00 0.00 0.00 88 1016.8
20260506035204 59 203 0.0 0.0 0.00 0.00 0.00 88 1016.8
20260506035105 60 203 0.0 0.0 0.00 0.00 0.00 88 1016.8
20260506035006 59 203 0.0 0.0 0.00 0.00 0.00 88 1016.8
20260506034905 59 150 0.0 0.0 0.00 0.00 0.00 88 1016.7
20260506034804 60 150 0.0 0.0 0.00 0.00 0.00 88 1016.8
20260506034705 60 150 0.0 0.0 0.00 0.00 0.00 88 1016.8
20260506034604 60 150 0.0 0.0 0.00 0.00 0.00 88 1016.7
20260506034506 60 150 0.0 0.0 0.00 0.00 0.00 88 1016.7
20260506034405 60 150 0.0 0.0 0.00 0.00 0.00 88 1016.8
20260506034304 60 150 0.0 0.0 0.00 0.00 0.00 88 1016.7
20260506034205 60 150 0.0 0.0 0.00 0.00 0.00 87 1016.7
20260506034104 60 150 0.0 0.0 0.00 0.00 0.00 87 1016.7
20260506034007 60 150 0.0 0.0 0.00 0.00 0.00 87 1016.7
20260506033904 60 150 0.0 0.0 0.00 0.00 0.00 87 1016.7
20260506033805 60 150 0.0 0.0 0.00 0.00 0.00 87 1016.6
20260506033704 60 150 0.0 0.0 0.00 0.00 0.00 87 1016.6
20260506033604 60 150 0.0 0.0 0.00 0.00 0.00 87 1016.6
20260506033506 60 150 0.0 0.0 0.00 0.00 0.00 87 1016.6
20260506033405 60 150 0.0 0.0 0.00 0.00 0.00 87 1016.6
20260506033304 60 150 0.0 0.0 0.00 0.00 0.00 87 1016.6
20260506033204 60 150 0.0 0.0 0.00 0.00 0.00 87 1016.7
20260506033105 60 150 0.0 0.0 0.00 0.00 0.00 86 1016.6
20260506033008 60 150 0.0 0.0 0.00 0.00 0.00 86 1016.7
20260506032905 60 150 0.0 0.0 0.00 0.00 0.00 86 1016.8
20260506032804 60 150 0.0 0.0 0.00 0.00 0.00 86 1016.7
20260506032705 60 150 0.0 0.0 0.00 0.00 0.00 86 1016.7
20260506032604 60 150 0.0 0.0 0.00 0.00 0.00 86 1016.7
20260506032506 60 150 0.0 0.0 0.00 0.00 0.00 86 1016.7
20260506032404 60 150 0.0 0.0 0.00 0.00 0.00 86 1016.7
20260506032306 60 150 0.0 0.0 0.00 0.00 0.00 86 1016.6
20260506032205 60 150 0.0 0.0 0.00 0.00 0.00 86 1016.7
20260506031605 61 150 0.0 0.0 0.00 0.00 0.00 86 1016.7
20260506031506 61 87 0.0 0.0 0.00 0.00 0.00 85 1016.7
20260506031404 61 87 0.0 0.0 0.00 0.00 0.00 85 1016.6
20260506031305 61 87 0.0 0.0 0.00 0.00 0.00 85 1016.6
20260506031204 61 87 0.0 0.0 0.00 0.00 0.00 85 1016.6
20260506031105 61 110 0.0 0.0 0.00 0.00 0.00 85 1016.6
20260506031006 61 110 0.0 0.0 0.00 0.00 0.00 85 1016.5
20260506030905 61 110 0.0 0.0 0.00 0.00 0.00 85 1016.5
20260506030804 61 110 0.0 0.0 0.00 0.00 0.00 85 1016.6
20260506030704 61 110 0.0 0.0 0.00 0.00 0.00 85 1016.7
20260506030604 61 110 0.0 0.0 0.00 0.00 0.00 85 1016.6
20260506030506 61 110 0.0 0.0 0.00 0.00 0.00 85 1016.6
20260506030205 61 110 0.0 0.0 0.00 0.00 0.00 84 1016.7
20260506030105 61 110 0.0 0.0 0.00 0.00 0.00 84 1016.7
20260506030008 61 110 0.0 0.0 0.00 0.00 0.00 84 1016.7
20260506025905 61 110 0.0 0.0 0.00 0.00 0.00 84 1016.7
20260506025804 61 110 0.0 0.0 0.00 0.00 0.00 84 1016.6
20260506025705 61 110 0.0 0.0 0.00 0.00 0.00 84 1016.7
20260506025604 61 108 0.0 0.0 0.00 0.00 0.00 84 1016.7
20260506025506 61 108 0.0 0.0 0.00 0.00 0.00 83 1016.7
20260506025405 62 108 0.0 0.0 0.00 0.00 0.00 83 1016.6
20260506025105 62 116 0.0 0.0 0.00 0.00 0.00 83 1016.7
20260506025006 62 119 0.0 0.0 0.00 0.00 0.00 83 1016.7
20260506024804 62 135 0.0 0.0 0.00 0.00 0.00 83 1016.7
20260506024704 62 135 0.0 0.0 0.00 0.00 0.00 83 1016.8
20260506024605 62 135 0.0 0.0 0.00 0.00 0.00 83 1016.8
20260506024506 62 135 0.0 0.0 0.00 0.00 0.00 83 1016.9
20260506024404 62 135 0.0 0.0 0.00 0.00 0.00 83 1016.9
20260506024304 62 135 0.0 0.0 0.00 0.00 0.00 83 1016.9
20260506024204 62 135 0.0 0.0 0.00 0.00 0.00 83 1016.8
20260506024106 62 154 0.0 0.0 0.00 0.00 0.00 83 1016.9
20260506024006 62 154 0.0 0.0 0.00 0.00 0.00 83 1016.9
20260506023805 62 177 0.0 0.0 0.00 0.00 0.00 82 1016.9
20260506023704 62 177 0.0 0.0 0.00 0.00 0.00 82 1016.9
20260506023604 62 177 0.0 0.0 0.00 0.00 0.00 82 1016.9
20260506023505 62 177 0.0 0.0 0.00 0.00 0.00 82 1016.9
20260506023405 62 177 0.0 0.0 0.00 0.00 0.00 82 1016.9
20260506023205 63 177 0.0 0.0 0.00 0.00 0.00 82 1016.9
20260506022904 63 177 0.0 0.0 0.00 0.00 0.00 82 1017.0
20260506022805 63 177 0.0 0.0 0.00 0.00 0.00 82 1017.0
20260506022705 63 177 0.0 0.0 0.00 0.00 0.00 82 1017.0
20260506022604 63 177 0.0 0.0 0.00 0.00 0.00 81 1017.0
20260506022505 63 177 0.0 0.0 0.00 0.00 0.00 81 1017.1
20260506022405 63 177 0.0 0.0 0.00 0.00 0.00 81 1017.1
20260506022306 63 177 0.0 0.0 0.00 0.00 0.00 81 1017.1
20260506022205 63 177 0.0 0.0 0.00 0.00 0.00 81 1017.1
20260506022104 63 177 0.0 0.0 0.00 0.00 0.00 81 1017.0
20260506022006 63 177 0.0 0.0 0.00 0.00 0.00 81 1017.0
20260506021904 63 177 0.0 0.0 0.00 0.00 0.00 81 1017.0
20260506021604 63 177 0.0 0.9 0.00 0.00 0.00 80 1017.1
20260506021506 63 177 0.0 0.9 0.00 0.00 0.00 80 1017.1
20260506021404 63 177 0.0 0.9 0.00 0.00 0.00 80 1017.1
20260506021305 63 176 0.0 0.9 0.00 0.00 0.00 79 1017.0
20260506021205 63 164 0.0 0.9 0.00 0.00 0.00 79 1017.0
20260506021104 63 164 0.0 0.9 0.00 0.00 0.00 79 1016.9
20260506021006 63 164 0.0 0.9 0.00 0.00 0.00 79 1016.8
20260506020905 64 164 0.0 0.0 0.00 0.00 0.00 79 1016.8
20260506020805 64 164 0.0 0.0 0.00 0.00 0.00 79 1016.9
20260506020704 64 164 0.0 0.0 0.00 0.00 0.00 79 1016.9
20260506020404 64 164 0.0 0.0 0.00 0.00 0.00 78 1016.8
20260506020304 64 164 0.0 0.0 0.00 0.00 0.00 78 1016.9
20260506020204 64 164 0.0 0.9 0.00 0.00 0.00 78 1016.8
20260506020104 64 164 0.0 0.9 0.00 0.00 0.00 78 1016.9
20260506020006 64 164 0.0 0.9 0.00 0.00 0.00 78 1016.9
20260506015905 64 164 0.0 0.9 0.00 0.00 0.00 77 1016.9
20260506015804 64 164 0.0 0.9 0.00 0.00 0.00 77 1016.8
20260506015704 64 164 0.0 1.7 0.00 0.00 0.00 77 1016.8
20260506015604 64 164 0.0 1.7 0.00 0.00 0.00 77 1016.7
20260506015506 64 164 0.0 1.7 0.00 0.00 0.00 77 1016.7
20260506015406 64 164 0.0 1.7 0.00 0.00 0.00 77 1016.7
20260506015205 64 164 0.0 1.7 0.00 0.00 0.00 77 1016.7
20260506015103 64 164 0.9 1.7 0.00 0.00 0.00 77 1016.8
20260506015006 64 164 0.9 1.7 0.00 0.00 0.00 77 1016.7
20260506014905 64 164 0.9 1.7 0.00 0.00 0.00 76 1016.8
20260506014705 65 144 0.0 1.7 0.00 0.00 0.00 76 1016.7
20260506014604 65 144 0.0 1.7 0.00 0.00 0.00 76 1016.7
20260506014506 65 144 0.0 1.7 0.00 0.00 0.00 76 1016.7
20260506014304 65 144 0.0 1.7 0.00 0.00 0.00 76 1016.6
20260506014204 65 144 0.0 1.7 0.00 0.00 0.00 76 1016.5
20260506014104 65 144 0.0 1.7 0.00 0.00 0.00 76 1016.6
20260506014006 65 144 0.0 1.7 0.00 0.00 0.00 75 1016.5
20260506013904 65 146 0.0 1.7 0.00 0.00 0.00 75 1016.5
20260506013805 65 151 0.0 1.7 0.00 0.00 0.00 75 1016.5
20260506013704 65 151 0.0 1.7 0.00 0.00 0.00 75 1016.5
20260506013606 65 151 0.9 1.7 0.00 0.00 0.00 75 1016.5
20260506013507 65 151 0.9 1.7 0.00 0.00 0.00 75 1016.4
20260506013204 65 162 0.9 2.6 0.00 0.00 0.00 75 1016.4
20260506013108 65 162 0.9 2.6 0.00 0.00 0.00 74 1016.4
20260506013006 65 160 0.9 2.6 0.00 0.00 0.00 74 1016.4
20260506012904 65 178 0.9 2.6 0.00 0.00 0.00 74 1016.4
20260506012804 65 152 0.0 2.6 0.00 0.00 0.00 74 1016.5
20260506012704 65 152 0.9 2.6 0.00 0.00 0.00 74 1016.4
20260506012604 65 152 0.9 2.6 0.00 0.00 0.00 74 1016.4
20260506012506 65 167 0.9 2.6 0.00 0.00 0.00 74 1016.4
20260506012404 65 145 1.7 2.6 0.00 0.00 0.00 74 1016.4
20260506012104 66 156 0.9 3.5 0.00 0.00 0.00 74 1016.4
20260506012006 66 161 0.9 2.6 0.00 0.00 0.00 73 1016.4
20260506011904 66 111 0.9 2.6 0.00 0.00 0.00 73 1016.4
20260506011804 66 111 0.9 2.6 0.00 0.00 0.00 73 1016.4
20260506011704 66 139 0.9 2.6 0.00 0.00 0.00 73 1016.4
20260506011604 66 146 0.9 2.6 0.00 0.00 0.00 73 1016.4
20260506011507 66 159 0.9 2.6 0.00 0.00 0.00 73 1016.4
20260506011404 66 162 0.9 3.5 0.00 0.00 0.00 73 1016.3
20260506011305 66 135 0.9 2.6 0.00 0.00 0.00 73 1016.4
20260506011206 66 120 0.9 2.6 0.00 0.00 0.00 73 1016.4
20260506011104 66 148 0.9 2.6 0.00 0.00 0.00 73 1016.4
20260506011006 66 166 0.9 2.6 0.00 0.00 0.00 73 1016.3
20260506010904 66 173 0.9 2.6 0.00 0.00 0.00 73 1016.4
20260506010804 66 111 0.9 2.6 0.00 0.00 0.00 73 1016.3
20260506010704 66 115 1.7 2.6 0.00 0.00 0.00 72 1016.4
20260506010604 66 136 1.7 2.6 0.00 0.00 0.00 72 1016.4
20260506010506 66 136 1.7 2.6 0.00 0.00 0.00 72 1016.5
20260506010405 66 126 0.9 2.6 0.00 0.00 0.00 72 1016.5
20260506010304 66 165 0.9 4.3 0.00 0.00 0.00 71 1016.5
20260506010204 66 153 0.9 4.3 0.00 0.00 0.00 71 1016.5
20260506010105 66 138 0.0 4.3 0.00 0.00 0.00 71 1016.6
20260506010006 66 134 0.0 4.3 0.00 0.00 0.00 71 1016.4
20260506005904 67 131 0.9 4.3 0.00 0.00 0.00 71 1016.4
20260506005804 67 131 0.9 4.3 0.00 0.00 0.00 71 1016.5
20260506005704 67 115 0.9 4.3 0.00 0.00 0.00 71 1016.4
20260506005404 67 192 1.7 3.5 0.00 0.00 0.00 71 1016.3
20260506005305 67 147 0.9 3.5 0.00 0.00 0.00 71 1016.3
20260506005203 67 159 0.9 5.2 0.00 0.00 0.00 70 1016.4
20260506005104 67 160 0.9 5.2 0.00 0.00 0.00 70 1016.4
20260506005006 67 148 0.9 5.2 0.00 0.00 0.00 70 1016.4
20260506004804 67 144 0.9 5.2 0.00 0.00 0.00 70 1016.3
20260506004704 67 155 0.9 5.2 0.00 0.00 0.00 70 1016.4
20260506004604 67 140 0.9 5.2 0.00 0.00 0.00 69 1016.4
20260506004506 67 122 1.7 5.2 0.00 0.00 0.00 69 1016.4
20260506004403 67 164 1.7 5.2 0.00 0.00 0.00 69 1016.3
20260506004304 67 144 0.9 3.5 0.00 0.00 0.00 69 1016.3
20260506004205 67 130 0.9 3.5 0.00 0.00 0.00 69 1016.3
20260506004103 68 174 0.9 3.5 0.00 0.00 0.00 69 1016.3
20260506004005 68 134 0.9 3.5 0.00 0.00 0.00 69 1016.3
20260506003902 68 163 0.9 3.5 0.00 0.00 0.00 69 1016.3
20260506003802 68 155 0.9 3.5 0.00 0.00 0.00 69 1016.3
20260506003703 68 138 0.9 3.5 0.00 0.00 0.00 68 1016.3
20260506003603 68 141 1.7 3.5 0.00 0.00 0.00 68 1016.3
20260506003506 68 126 1.7 3.5 0.00 0.00 0.00 68 1016.3
20260506003403 68 139 1.7 3.5 0.00 0.00 0.00 68 1016.3
20260506003304 68 90 1.7 3.5 0.00 0.00 0.00 68 1016.3
20260506003203 68 150 1.7 5.2 0.00 0.00 0.00 68 1016.3
20260506003103 68 146 1.7 5.2 0.00 0.00 0.00 68 1016.3
20260506003006 68 173 1.7 5.2 0.00 0.00 0.00 68 1016.4
20260506002903 68 126 1.7 5.2 0.00 0.00 0.00 68 1016.3
20260506002803 68 140 0.9 5.2 0.00 0.00 0.00 68 1016.3
20260506002704 68 146 0.9 5.2 0.00 0.00 0.00 67 1016.3
20260506002603 68 103 0.9 5.2 0.00 0.00 0.00 67 1016.4
20260506002506 68 96 1.7 5.2 0.00 0.00 0.00 67 1016.4
20260506002404 69 169 2.6 5.2 0.00 0.00 0.00 67 1016.4
20260506002203 69 120 1.7 5.2 0.00 0.00 0.00 67 1016.4
20260506002103 69 97 1.7 3.5 0.00 0.00 0.00 67 1016.3
20260506002006 69 192 1.7 3.5 0.00 0.00 0.00 66 1016.3
20260506001903 69 81 0.9 3.5 0.00 0.00 0.00 66 1016.3
20260506001803 69 172 1.7 5.2 0.00 0.00 0.00 66 1016.3
20260506001703 69 155 1.7 5.2 0.00 0.00 0.00 66 1016.3
20260506001604 69 171 0.9 5.2 0.00 0.00 0.00 66 1016.4
20260506001506 69 165 0.9 5.2 0.00 0.00 0.00 66 1016.4
20260506001403 69 141 0.9 5.2 0.00 0.00 0.00 66 1016.3
20260506001304 69 112 1.7 5.2 0.00 0.00 0.00 66 1016.3
20260506001203 69 165 1.7 7.0 0.00 0.00 0.00 66 1016.3
20260506001104 69 171 2.6 7.0 0.00 0.00 0.00 66 1016.2
20260506001005 69 155 2.6 7.0 0.00 0.00 0.00 65 1016.2
20260506000904 69 155 2.6 7.0 0.00 0.00 0.00 65 1016.2
20260506000803 69 167 1.7 7.0 0.00 0.00 0.00 65 1016.2
20260506000704 69 205 1.7 7.0 0.00 0.00 0.00 65 1016.3
20260506000403 69 165 2.6 8.7 0.00 0.00 0.00 65 1016.2
20260506000304 69 129 2.6 8.7 0.00 0.00 0.00 65 1016.3
20260506000204 69 159 3.5 8.7 0.00 0.00 0.00 65 1016.2
20260506000104 70 159 2.6 8.7 0.00 0.00 0.00 65 1016.3
20260506000005 70 147 3.5 8.7 0.00 0.00 0.00 65 1016.3
20260505235903 70 36 2.6 8.7 0.00 0.00 0.00 65 1016.3
20260505235802 70 85 3.5 8.7 0.00 0.00 0.00 65 1016.3
20260505235704 70 145 4.3 8.7 0.00 0.00 0.00 65 1016.2
20260505235404 70 135 1.7 6.1 0.00 0.00 0.00 65 1016.2
20260505235305 70 131 1.7 6.1 0.00 0.00 0.00 65 1016.3
20260505235204 70 116 1.7 6.1 0.00 0.00 0.00 65 1016.3
20260505235104 70 98 1.7 11.3 0.00 0.00 0.00 65 1016.2
20260505235006 70 134 1.7 11.3 0.00 0.00 0.00 65 1016.3
20260505234904 70 91 1.7 11.3 0.00 0.00 0.00 64 1016.2
20260505234804 70 175 2.6 11.3 0.00 0.00 0.00 64 1016.2
20260505234703 70 116 2.6 11.3 0.00 0.00 0.00 64 1016.2
20260505234604 70 234 2.6 11.3 0.00 0.00 0.00 64 1016.2
20260505234506 70 173 2.6 11.3 0.00 0.00 0.00 64 1016.3
20260505234303 70 147 6.1 11.3 0.00 0.00 0.00 64 1016.3
20260505234203 70 112 5.2 10.4 0.00 0.00 0.00 64 1016.2
20260505234104 70 153 3.5 8.7 0.00 0.00 0.00 64 1016.3
20260505234006 70 153 3.5 9.6 0.00 0.00 0.00 63 1016.2
20260505233903 71 161 3.5 9.6 0.00 0.00 0.00 63 1016.2
20260505233804 71 167 5.2 9.6 0.00 0.00 0.00 63 1016.3
20260505233703 71 180 6.1 9.6 0.00 0.00 0.00 63 1016.2
20260505233604 71 144 4.3 9.6 0.00 0.00 0.00 63 1016.2
20260505233505 71 144 2.6 9.6 0.00 0.00 0.00 63 1016.2
20260505233404 71 185 4.3 13.0 0.00 0.00 0.00 63 1016.2
20260505233304 71 164 5.2 13.0 0.00 0.00 0.00 63 1016.2
20260505233204 71 126 3.5 13.0 0.00 0.00 0.00 63 1016.2
20260505233104 71 141 2.6 13.0 0.00 0.00 0.00 63 1016.1
20260505233006 71 136 2.6 13.0 0.00 0.00 0.00 63 1016.1
20260505232903 71 136 4.3 13.0 0.00 0.00 0.00 63 1016.1
20260505232803 71 71 5.2 13.0 0.00 0.00 0.00 63 1016.0
20260505232704 71 124 4.3 13.0 0.00 0.00 0.00 63 1016.0
20260505232603 71 138 3.5 12.2 0.00 0.00 0.00 63 1015.9
20260505232506 71 119 3.5 10.4 0.00 0.00 0.00 63 1015.9
20260505232403 71 163 2.6 10.4 0.00 0.00 0.00 63 1015.9
20260505232305 71 147 2.6 10.4 0.00 0.00 0.00 63 1015.9
20260505232203 71 136 3.5 10.4 0.00 0.00 0.00 63 1015.8
20260505231903 71 90 3.5 10.4 0.00 0.00 0.00 63 1015.9
20260505231803 71 215 3.5 11.3 0.00 0.00 0.00 63 1015.9
20260505231703 71 161 2.6 10.4 0.00 0.00 0.00 63 1016.0
20260505231403 71 153 6.1 10.4 0.00 0.00 0.00 62 1015.9
20260505231203 71 125 3.5 12.2 0.00 0.00 0.00 62 1015.9
20260505231103 72 137 4.3 12.2 0.00 0.00 0.00 62 1015.9
20260505230903 72 100 5.2 12.2 0.00 0.00 0.00 62 1016.0
20260505230803 72 130 4.3 12.2 0.00 0.00 0.00 63 1016.0
20260505230703 72 173 4.3 12.2 0.00 0.00 0.00 63 1016.0
20260505230604 72 162 4.3 12.2 0.00 0.00 0.00 63 1016.0
20260505230506 72 120 3.5 13.0 0.00 0.00 0.00 63 1016.1
20260505230203 72 157 5.2 13.0 0.00 0.00 0.00 63 1016.0
20260505230009 72 190 5.2 13.0 0.00 0.00 0.00 63 1016.0
20260505225905 72 169 5.2 13.0 0.00 0.00 0.00 62 1016.1
20260505225804 72 142 6.1 13.0 0.00 0.00 0.00 62 1016.1
20260505225705 72 154 5.2 13.0 0.00 0.00 0.00 62 1016.1
20260505225603 72 192 4.3 10.4 0.00 0.00 0.00 63 1016.1
20260505225506 72 109 4.3 10.4 0.00 0.00 0.00 63 1016.1
20260505225404 72 192 4.3 13.9 0.00 0.00 0.00 62 1016.1
20260505224904 72 193 4.3 13.9 0.00 0.00 0.00 62 1016.2
20260505224804 72 111 4.3 13.9 0.00 0.00 0.00 62 1016.1
20260505224704 72 101 6.1 13.9 0.00 0.00 0.00 62 1016.1
20260505224604 72 142 6.1 13.9 0.00 0.00 0.00 62 1016.2
20260505224505 72 115 5.2 8.7 0.00 0.00 0.00 62 1016.2
20260505224405 73 165 4.3 8.7 0.00 0.00 0.00 62 1016.2
20260505224306 73 150 4.3 12.2 0.00 0.00 0.00 62 1016.2
20260505224204 73 170 4.3 12.2 0.00 0.00 0.00 62 1016.0
20260505224105 73 135 4.3 12.2 0.00 0.00 0.00 62 1016.1
20260505223905 73 191 3.5 12.2 0.00 0.00 0.00 61 1016.0
20260505223804 73 89 3.5 15.6 0.00 0.00 0.00 62 1016.1
20260505223604 73 157 3.5 15.6 0.00 0.00 0.00 62 1016.1
20260505223506 73 173 4.3 15.6 0.00 0.00 0.00 61 1016.1
20260505223406 73 172 5.2 15.6 0.00 0.00 0.00 61 1016.1
20260505223305 73 47 5.2 15.6 0.00 0.00 0.00 61 1016.1
20260505223104 73 152 7.0 15.6 0.00 0.00 0.00 61 1016.1
20260505223006 73 136 5.2 15.6 0.00 0.00 0.00 61 1016.0
20260505222904 73 113 4.3 12.2 0.00 0.00 0.00 61 1016.0
20260505222806 73 173 6.1 12.2 0.00 0.00 0.00 61 1016.0
20260505222704 73 236 6.1 12.2 0.00 0.00 0.00 60 1016.0
20260505222404 73 83 2.6 12.2 0.00 0.00 0.00 61 1016.1
20260505222306 73 146 3.5 12.2 0.00 0.00 0.00 61 1016.1
20260505222103 73 168 4.3 11.3 0.00 0.00 0.00 60 1016.1
20260505222006 73 167 5.2 11.3 0.00 0.00 0.00 60 1016.1
20260505221905 73 202 6.1 11.3 0.00 0.00 0.00 60 1016.1
20260505221804 73 162 6.1 11.3 0.00 0.00 0.00 60 1016.1
20260505221705 73 110 6.1 11.3 0.00 0.00 0.00 60 1016.1
20260505221604 73 170 6.1 11.3 0.00 0.00 0.00 60 1016.0
20260505221507 73 154 5.2 11.3 0.00 0.00 0.00 60 1016.1
20260505221405 73 89 5.2 11.3 0.00 0.00 0.00 59 1016.1
20260505221304 73 179 5.2 11.3 0.00 0.00 0.00 60 1016.2
20260505221204 73 163 4.3 10.4 0.00 0.00 0.00 60 1016.0
20260505221104 73 171 4.3 10.4 0.00 0.00 0.00 59 1016.0
20260505221005 73 138 4.3 12.2 0.00 0.00 0.00 59 1016.0
20260505220904 73 175 5.2 12.2 0.00 0.00 0.00 59 1016.0
20260505220803 74 141 5.2 12.2 0.00 0.00 0.00 59 1016.0
20260505220705 74 74 4.3 12.2 0.00 0.00 0.00 59 1016.0
20260505220605 74 127 4.3 12.2 0.00 0.00 0.00 59 1016.0
20260505220506 74 171 3.5 12.2 0.00 0.00 0.00 59 1016.0
20260505220404 74 107 4.3 12.2 0.00 0.00 0.00 59 1016.0
20260505220304 74 92 5.2 12.2 0.00 0.00 0.00 58 1016.1
20260505220204 74 128 6.1 12.2 0.00 0.00 0.00 59 1016.1
20260505220104 74 94 5.2 12.2 0.00 0.00 0.00 58 1016.1
20260505220006 74 139 5.2 12.2 0.00 0.00 0.00 59 1016.1
20260505215904 74 35 3.5 12.2 0.00 0.00 0.00 59 1016.2
20260505215805 74 132 5.2 12.2 0.00 0.00 0.00 58 1016.2
20260505215605 74 190 5.2 13.0 0.00 0.00 0.00 58 1016.2
20260505215506 74 107 4.3 12.2 0.00 0.00 0.00 58 1016.2
20260505215405 74 122 4.3 12.2 0.00 0.00 0.00 58 1016.2
20260505215305 74 179 5.2 12.2 0.00 0.00 0.00 58 1016.1
20260505215204 74 194 5.2 13.9 0.00 0.00 0.00 58 1016.2
20260505215104 74 191 6.1 13.9 0.00 0.00 0.00 58 1016.2
20260505215005 74 161 6.1 13.9 0.00 0.00 0.00 58 1016.2
20260505214903 74 101 7.0 13.9 0.00 0.00 0.00 58 1016.3
20260505214805 74 148 6.1 13.9 0.00 0.00 0.00 58 1016.3
20260505214704 74 142 4.3 13.9 0.00 0.00 0.00 58 1016.2
20260505214605 74 144 4.3 13.9 0.00 0.00 0.00 58 1016.2
20260505214507 74 94 6.1 13.9 0.00 0.00 0.00 58 1016.2
20260505214404 74 95 6.1 13.9 0.00 0.00 0.00 57 1016.1
20260505214304 74 183 6.1 11.3 0.00 0.00 0.00 57 1016.2
20260505214204 74 92 6.1 9.6 0.00 0.00 0.00 57 1016.2
20260505214104 74 122 6.1 9.6 0.00 0.00 0.00 57 1016.1
20260505214006 75 93 7.0 9.6 0.00 0.00 0.00 57 1016.1
20260505213906 75 94 6.1 11.3 0.00 0.00 0.00 57 1016.1
20260505213804 75 171 5.2 9.6 0.00 0.00 0.00 57 1016.2
20260505213705 75 182 6.1 9.6 0.00 0.00 0.00 57 1016.2
20260505213604 75 165 6.1 10.4 0.00 0.00 0.00 57 1016.2
20260505213506 75 153 6.1 10.4 0.00 0.00 0.00 57 1016.2
20260505213304 75 153 5.2 10.4 0.00 0.00 0.00 57 1016.2
20260505213205 75 86 5.2 9.6 0.00 0.00 0.00 57 1016.2
20260505213105 75 152 4.3 9.6 0.00 0.00 0.00 57 1016.3
20260505213007 75 95 5.2 9.6 0.00 0.00 0.00 57 1016.2
20260505212803 75 169 3.5 9.6 0.00 0.00 0.00 57 1016.3
20260505212704 75 157 3.5 9.6 0.00 0.00 0.00 57 1016.2
20260505212404 75 158 5.2 11.3 0.00 0.00 0.00 56 1016.2
20260505212306 75 81 5.2 11.3 0.00 0.00 0.00 56 1016.2
20260505212204 75 144 5.2 12.2 0.00 0.00 0.00 56 1016.2
20260505212105 75 121 5.2 12.2 0.00 0.00 0.00 56 1016.2
20260505212005 75 150 6.1 12.2 0.00 0.00 0.00 56 1016.3
20260505211905 75 103 7.0 12.2 0.00 0.00 0.00 56 1016.3
20260505211806 75 128 6.1 12.2 0.00 0.00 0.00 56 1016.3
20260505211704 75 160 5.2 12.2 0.00 0.00 0.00 56 1016.4
20260505211604 75 175 5.2 12.2 0.00 0.00 0.00 56 1016.2
20260505211506 75 121 7.0 12.2 0.00 0.00 0.00 55 1016.2
20260505211403 75 163 6.1 12.2 0.00 0.00 0.00 56 1016.3
20260505211305 75 169 5.2 13.0 0.00 0.00 0.00 56 1016.3
20260505211204 75 111 5.2 13.0 0.00 0.00 0.00 56 1016.2
20260505211104 75 74 4.3 13.0 0.00 0.00 0.00 55 1016.2
20260505211008 75 167 4.3 13.0 0.00 0.00 0.00 56 1016.3
20260505210904 75 150 4.3 13.0 0.00 0.00 0.00 56 1016.2
20260505210804 75 156 4.3 13.0 0.00 0.00 0.00 55 1016.2
20260505210405 75 173 5.2 13.0 0.00 0.00 0.00 55 1016.3
20260505210305 75 64 5.2 13.0 0.00 0.00 0.00 55 1016.3
20260505210205 75 128 7.0 13.0 0.00 0.00 0.00 56 1016.3
20260505210104 75 209 7.8 13.0 0.00 0.00 0.00 55 1016.2
20260505210008 76 153 7.0 13.0 0.00 0.00 0.00 55 1016.2
20260505205905 76 129 7.8 13.0 0.00 0.00 0.00 55 1016.2
20260505205805 76 194 6.1 10.4 0.00 0.00 0.00 56 1016.3
20260505205705 76 107 3.5 10.4 0.00 0.00 0.00 56 1016.2
20260505205403 76 232 4.3 10.4 0.00 0.00 0.00 55 1016.2
20260505205305 76 227 6.1 10.4 0.00 0.00 0.00 56 1016.2
20260505205204 76 119 6.1 10.4 0.00 0.00 0.00 56 1016.1
20260505205105 76 192 5.2 10.4 0.00 0.00 0.00 56 1016.2
20260505205006 76 139 4.3 10.4 0.00 0.00 0.00 56 1016.1
20260505204906 76 90 3.5 10.4 0.00 0.00 0.00 56 1016.1
20260505204804 76 55 4.3 10.4 0.00 0.00 0.00 55 1016.1
20260505204704 76 128 4.3 10.4 0.00 0.00 0.00 55 1016.1
20260505204404 76 177 5.2 10.4 0.00 0.00 0.00 54 1016.1
20260505204104 76 165 5.2 13.9 0.00 0.00 0.00 55 1016.2
20260505204006 77 86 5.2 13.9 0.00 0.00 0.00 55 1016.1
20260505203904 77 312 6.1 13.9 0.00 0.00 0.00 54 1016.2
20260505203805 77 178 6.1 13.9 0.00 0.00 0.00 54 1016.2
20260505203704 77 156 5.2 13.9 0.00 0.00 0.00 54 1016.1
20260505203603 77 143 6.1 13.9 0.00 0.00 0.00 53 1016.2
20260505203506 77 194 6.1 13.9 0.00 0.00 0.00 53 1016.2
20260505203404 77 173 5.2 13.9 0.00 0.00 0.00 53 1016.1
20260505203204 77 265 4.3 9.6 0.00 0.00 0.00 54 1016.0
20260505203105 77 164 4.3 9.6 0.00 0.00 0.00 54 1016.1
20260505203007 77 66 3.5 9.6 0.00 0.00 0.00 54 1016.1
20260505202905 77 200 3.5 9.6 0.00 0.00 0.00 54 1016.0
20260505202804 77 55 4.3 9.6 0.00 0.00 0.00 54 1016.1
20260505202705 77 170 4.3 9.6 0.00 0.00 0.00 53 1016.1
20260505202605 77 173 4.3 9.6 0.00 0.00 0.00 53 1016.1
20260505202507 77 217 4.3 13.9 0.00 0.00 0.00 53 1016.1
20260505202404 77 225 3.5 13.9 0.00 0.00 0.00 53 1016.1
20260505202306 77 202 4.3 13.9 0.00 0.00 0.00 53 1016.1
20260505202204 77 67 5.2 13.9 0.00 0.00 0.00 53 1016.1
20260505202104 77 139 4.3 13.9 0.00 0.00 0.00 54 1016.1
20260505202005 77 100 4.3 13.9 0.00 0.00 0.00 52 1016.0
20260505201804 77 138 7.0 13.9 0.00 0.00 0.00 52 1016.1
20260505201704 77 150 5.2 14.8 0.00 0.00 0.00 53 1016.2
20260505201604 77 58 3.5 10.4 0.00 0.00 0.00 53 1016.1
20260505201507 77 223 4.3 12.2 0.00 0.00 0.00 52 1016.1
20260505201404 77 192 5.2 12.2 0.00 0.00 0.00 52 1016.1
20260505201305 78 153 5.2 11.3 0.00 0.00 0.00 52 1016.2
20260505201205 78 199 6.1 11.3 0.00 0.00 0.00 51 1016.2
20260505201103 78 167 5.2 11.3 0.00 0.00 0.00 53 1016.3
20260505201006 78 161 4.3 11.3 0.00 0.00 0.00 53 1016.3
20260505200804 78 140 5.2 11.3 0.00 0.00 0.00 53 1016.3
20260505200705 78 104 5.2 11.3 0.00 0.00 0.00 52 1016.3
20260505200604 78 127 6.1 12.2 0.00 0.00 0.00 51 1016.3
20260505200506 78 83 6.1 11.3 0.00 0.00 0.00 51 1016.4
20260505200404 78 200 4.3 12.2 0.00 0.00 0.00 51 1016.5
20260505200304 78 144 4.3 12.2 0.00 0.00 0.00 51 1016.4
20260505200205 78 178 5.2 12.2 0.00 0.00 0.00 52 1016.4
20260505200104 78 173 4.3 12.2 0.00 0.00 0.00 51 1016.5
20260505200007 78 86 5.2 12.2 0.00 0.00 0.00 52 1016.4
20260505195903 78 93 7.0 12.2 0.00 0.00 0.00 53 1016.5
20260505195802 78 130 5.2 13.9 0.00 0.00 0.00 52 1016.4
20260505195703 78 115 5.2 13.9 0.00 0.00 0.00 53 1016.4
20260505195603 78 132 6.1 13.9 0.00 0.00 0.00 52 1016.5
20260505195505 78 166 5.2 13.9 0.00 0.00 0.00 52 1016.6
20260505195404 78 93 5.2 13.9 0.00 0.00 0.00 52 1016.7
20260505195305 78 93 6.1 13.9 0.00 0.00 0.00 51 1016.7
20260505195203 78 157 6.1 13.9 0.00 0.00 0.00 51 1016.7
20260505195104 79 111 7.8 13.9 0.00 0.00 0.00 50 1016.7
20260505195006 79 190 8.7 13.9 0.00 0.00 0.00 51 1016.7
20260505194903 79 167 7.0 14.8 0.00 0.00 0.00 51 1016.7
20260505194803 79 133 6.1 11.3 0.00 0.00 0.00 51 1016.8
20260505194703 79 168 5.2 11.3 0.00 0.00 0.00 52 1016.8
20260505194604 79 143 3.5 11.3 0.00 0.00 0.00 52 1016.7
20260505194506 79 73 2.6 11.3 0.00 0.00 0.00 52 1016.8
20260505194402 79 202 2.6 11.3 0.00 0.00 0.00 52 1016.8
20260505194304 79 127 4.3 11.3 0.00 0.00 0.00 51 1016.8
20260505194203 79 98 7.0 11.3 0.00 0.00 0.00 51 1016.9
20260505194102 79 102 7.0 13.9 0.00 0.00 0.00 51 1016.9
20260505194005 79 169 5.2 11.3 0.00 0.00 0.00 52 1016.9
20260505193803 79 128 3.5 11.3 0.00 0.00 0.00 53 1017.0
20260505193703 79 153 5.2 12.2 0.00 0.00 0.00 51 1017.0
20260505193604 79 174 5.2 12.2 0.00 0.00 0.00 51 1016.9
20260505193505 79 186 5.2 12.2 0.00 0.00 0.00 54 1016.9
20260505193402 79 155 5.2 12.2 0.00 0.00 0.00 52 1016.9
20260505193304 79 159 4.3 12.2 0.00 0.00 0.00 52 1016.9
20260505193204 79 86 5.2 12.2 0.00 0.00 0.00 52 1017.0
20260505193103 79 135 6.1 12.2 0.00 0.00 0.00 51 1017.0
20260505193006 79 138 6.1 12.2 0.00 0.00 0.00 51 1017.0
20260505192804 79 137 4.3 11.3 0.00 0.00 0.00 53 1017.0
20260505192603 79 129 5.2 10.4 0.00 0.00 0.00 51 1017.1
20260505192505 79 82 4.3 10.4 0.00 0.00 0.00 51 1017.1
20260505192403 79 67 4.3 10.4 0.00 0.00 0.00 51 1017.1
20260505192305 79 182 3.5 13.9 0.00 0.00 0.00 49 1017.1
20260505192103 79 101 6.1 13.9 0.00 0.00 0.00 51 1017.2
20260505192005 79 100 4.3 13.9 0.00 0.00 0.00 51 1017.3
20260505191803 79 173 2.6 13.9 0.00 0.00 0.00 51 1017.2
20260505191703 79 159 4.3 13.9 0.00 0.00 0.00 52 1017.2
20260505191604 79 134 6.1 13.9 0.00 0.00 0.00 50 1017.3
20260505191505 79 143 5.2 13.9 0.00 0.00 0.00 50 1017.2
20260505191303 79 117 4.3 9.6 0.00 0.00 0.00 53 1017.3
20260505191203 79 175 4.3 9.6 0.00 0.00 0.00 53 1017.3
20260505190903 79 155 4.3 9.6 0.00 0.00 0.00 52 1017.4
20260505190802 79 213 3.5 9.6 0.00 0.00 0.00 54 1017.4
20260505190704 79 161 4.3 9.6 0.00 0.00 0.00 52 1017.4
20260505190403 79 136 4.3 8.7 0.00 0.00 0.00 52 1017.4
20260505190303 79 230 6.1 8.7 0.00 0.00 0.00 52 1017.4
20260505190204 79 167 5.2 9.6 0.00 0.00 0.00 52 1017.4
20260505190104 79 136 6.1 8.7 0.00 0.00 0.00 53 1017.3
20260505190007 79 178 6.1 8.7 0.00 0.00 0.00 53 1017.4
20260505185905 79 191 5.2 8.7 0.00 0.00 0.00 52 1017.3
20260505185703 79 198 3.5 13.0 0.00 0.00 0.00 52 1017.4
20260505185603 79 153 4.3 13.0 0.00 0.00 0.00 52 1017.4
20260505185506 79 190 6.1 13.0 0.00 0.00 0.00 52 1017.4
20260505185404 79 152 5.2 13.0 0.00 0.00 0.00 53 1017.4
20260505185305 79 127 4.3 13.0 0.00 0.00 0.00 54 1017.3
20260505185203 79 202 5.2 13.0 0.00 0.00 0.00 53 1017.4
20260505184703 79 96 5.2 11.3 0.00 0.00 0.00 53 1017.3
20260505184603 79 103 3.5 11.3 0.00 0.00 0.00 53 1017.3
20260505184506 79 85 4.3 11.3 0.00 0.00 0.00 54 1017.3
20260505184403 78 170 4.3 11.3 0.00 0.00 0.00 54 1017.3
20260505184303 78 209 4.3 11.3 0.00 0.00 0.00 54 1017.2
20260505184203 78 125 6.1 11.3 0.00 0.00 0.00 52 1017.2
20260505184103 79 205 5.2 11.3 0.00 0.00 0.00 53 1017.3
20260505184005 79 207 5.2 12.2 0.00 0.00 0.00 55 1017.1
20260505183904 79 97 7.0 12.2 0.00 0.00 0.00 54 1017.2
20260505183803 79 181 7.0 13.0 0.00 0.00 0.00 53 1017.3
20260505183703 79 120 6.1 10.4 0.00 0.00 0.00 53 1017.2
20260505183604 79 163 6.1 9.6 0.00 0.00 0.00 53 1017.3
20260505183506 79 180 6.1 9.6 0.00 0.00 0.00 53 1017.3
20260505183403 79 136 7.0 9.6 0.00 0.00 0.00 53 1017.3
20260505183303 79 147 5.2 9.6 0.00 0.00 0.00 53 1017.2
20260505183204 79 162 5.2 10.4 0.00 0.00 0.00 52 1017.2
20260505183103 79 85 5.2 11.3 0.00 0.00 0.00 53 1017.2
20260505183007 79 156 5.2 10.4 0.00 0.00 0.00 54 1017.2
20260505182703 80 232 5.2 10.4 0.00 0.00 0.00 53 1017.2
20260505182603 80 127 5.2 10.4 0.00 0.00 0.00 53 1017.3
20260505182505 80 103 5.2 10.4 0.00 0.00 0.00 53 1017.1
20260505182403 80 125 5.2 12.2 0.00 0.00 0.00 52 1017.1
20260505182305 79 178 4.3 10.4 0.00 0.00 0.00 53 1017.1
20260505182203 79 84 4.3 10.4 0.00 0.00 0.00 55 1017.1
20260505182103 79 141 5.2 10.4 0.00 0.00 0.00 54 1017.0
20260505182006 79 141 5.2 10.4 0.00 0.00 0.00 53 1017.0
20260505181904 79 94 5.2 10.4 0.00 0.00 0.00 54 1017.0
20260505181803 79 173 5.2 10.4 0.00 0.00 0.00 54 1017.1
20260505181703 79 78 5.2 10.4 0.00 0.00 0.00 54 1017.0
20260505181603 79 214 6.1 10.4 0.00 0.00 0.00 53 1017.0
20260505181506 79 144 6.1 10.4 0.00 0.00 0.00 54 1017.1
20260505181403 79 149 6.1 10.4 0.00 0.00 0.00 54 1017.1
20260505181303 79 140 7.0 10.4 0.00 0.00 0.00 54 1017.0
20260505181203 79 182 4.3 10.4 0.00 0.00 0.00 54 1017.1
20260505180903 79 142 5.2 10.4 0.00 0.00 0.00 55 1017.1
20260505180804 79 159 4.3 10.4 0.00 0.00 0.00 55 1017.1
20260505180704 79 156 3.5 9.6 0.00 0.00 0.00 56 1017.1
20260505180603 79 230 5.2 9.6 0.00 0.00 0.00 55 1017.2
20260505180506 79 142 5.2 9.6 0.00 0.00 0.00 56 1017.1
20260505180302 79 189 5.2 9.6 0.00 0.00 0.00 54 1017.1
20260505180203 79 164 5.2 9.6 0.00 0.00 0.00 55 1017.1
20260505180007 79 189 6.1 9.6 0.00 0.00 0.00 54 1017.1
20260505175802 79 119 4.3 10.4 0.00 0.00 0.00 54 1017.1
20260505175703 79 177 6.1 12.2 0.00 0.00 0.00 53 1017.1
20260505175602 79 134 5.2 12.2 0.00 0.00 0.00 55 1017.3
20260505175506 79 107 4.3 12.2 0.00 0.00 0.00 56 1017.1
20260505175404 79 150 4.3 12.2 0.00 0.00 0.00 53 1017.2
20260505175305 79 155 4.3 12.2 0.00 0.00 0.00 53 1017.2
20260505175203 79 81 3.5 12.2 0.00 0.00 0.00 54 1017.1
20260505174903 79 161 6.1 12.2 0.00 0.00 0.00 53 1017.1
20260505174603 79 117 2.6 11.3 0.00 0.00 0.00 53 1017.1
20260505174506 79 155 3.5 11.3 0.00 0.00 0.00 54 1017.0
20260505174402 79 171 4.3 11.3 0.00 0.00 0.00 53 1017.0
20260505174303 79 97 7.0 11.3 0.00 0.00 0.00 53 1017.1
20260505174204 79 81 6.1 11.3 0.00 0.00 0.00 53 1017.0
20260505173904 79 151 5.2 11.3 0.00 0.00 0.00 55 1016.9
20260505173803 79 169 3.5 11.3 0.00 0.00 0.00 56 1017.0
20260505173703 79 165 4.3 11.3 0.00 0.00 0.00 54 1016.9
20260505173604 79 96 3.5 11.3 0.00 0.00 0.00 53 1017.0
20260505173506 79 159 4.3 11.3 0.00 0.00 0.00 55 1017.1
20260505173303 79 194 4.3 9.6 0.00 0.00 0.00 54 1017.1
20260505173204 79 155 3.5 7.8 0.00 0.00 0.00 53 1017.2
20260505173103 79 98 3.5 10.4 0.00 0.00 0.00 54 1017.3
20260505173006 79 80 3.5 10.4 0.00 0.00 0.00 54 1017.2
20260505172903 79 145 4.3 10.4 0.00 0.00 0.00 56 1017.3
20260505172803 79 169 3.5 10.4 0.00 0.00 0.00 54 1017.4
20260505172703 79 145 2.6 10.4 0.00 0.00 0.00 56 1017.4
20260505172603 79 154 2.6 10.4 0.00 0.00 0.00 56 1017.3
20260505172506 78 92 3.5 10.4 0.00 0.00 0.00 55 1017.4
20260505172305 78 98 5.2 10.4 0.00 0.00 0.00 55 1017.5
20260505172203 78 105 4.3 10.4 0.00 0.00 0.00 55 1017.5
20260505172103 78 146 3.5 11.3 0.00 0.00 0.00 55 1017.5
20260505172006 78 234 4.3 9.6 0.00 0.00 0.00 55 1017.5
20260505171903 78 74 5.2 9.6 0.00 0.00 0.00 53 1017.5
20260505171803 78 155 4.3 9.6 0.00 0.00 0.00 54 1017.4
20260505171702 78 136 4.3 9.6 0.00 0.00 0.00 54 1017.5
20260505171604 78 48 4.3 9.6 0.00 0.00 0.00 54 1017.5
20260505171506 78 188 7.0 9.6 0.00 0.00 0.00 53 1017.5
20260505171403 78 159 6.1 9.6 0.00 0.00 0.00 54 1017.5
20260505171303 78 173 5.2 9.6 0.00 0.00 0.00 54 1017.5
20260505171204 78 175 5.2 9.6 0.00 0.00 0.00 54 1017.4
20260505170903 78 203 2.6 12.2 0.00 0.00 0.00 55 1017.5
20260505170804 78 82 3.5 12.2 0.00 0.00 0.00 54 1017.5
20260505170703 78 145 4.3 12.2 0.00 0.00 0.00 53 1017.5
20260505170604 78 215 4.3 12.2 0.00 0.00 0.00 54 1017.6
20260505170506 78 142 3.5 12.2 0.00 0.00 0.00 53 1017.6
20260505170402 78 118 3.5 12.2 0.00 0.00 0.00 53 1017.7
20260505170304 78 178 4.3 12.2 0.00 0.00 0.00 54 1017.7
20260505170204 78 163 5.2 12.2 0.00 0.00 0.00 54 1017.6
20260505170006 78 207 5.2 13.0 0.00 0.00 0.00 53 1017.6
20260505165903 78 195 3.5 7.8 0.00 0.00 0.00 53 1017.6
20260505165603 79 182 4.3 7.8 0.00 0.00 0.00 52 1017.6
20260505165505 79 159 5.2 7.8 0.00 0.00 0.00 52 1017.6
20260505165403 79 182 4.3 7.8 0.00 0.00 0.00 53 1017.6
20260505165306 79 175 3.5 7.0 0.00 0.00 0.00 53 1017.6
20260505165203 78 144 3.5 7.8 0.00 0.00 0.00 55 1017.7
20260505164903 78 77 2.6 8.7 0.00 0.00 0.00 54 1017.7
20260505164804 78 84 2.6 8.7 0.00 0.00 0.00 56 1017.7
20260505164603 78 165 2.6 8.7 0.00 0.00 0.00 54 1017.7
20260505164505 78 117 3.5 8.7 0.00 0.00 0.00 54 1017.8
20260505164403 77 144 4.3 8.7 0.00 0.00 0.00 54 1017.8
20260505164303 77 128 4.3 8.7 0.00 0.00 0.00 56 1017.7
20260505164203 77 177 6.1 8.7 0.00 0.00 0.00 55 1017.6
20260505164103 77 248 6.1 8.7 0.00 0.00 0.00 54 1017.7
20260505164006 77 186 4.3 7.8 0.00 0.00 0.00 56 1017.8
20260505163903 77 171 4.3 7.0 0.00 0.00 0.00 55 1017.8
20260505163603 77 212 3.5 8.7 0.00 0.00 0.00 56 1017.8
20260505163505 77 175 3.5 8.7 0.00 0.00 0.00 57 1017.9
20260505163403 77 167 1.7 8.7 0.00 0.00 0.00 56 1017.9
20260505163304 77 163 1.7 8.7 0.00 0.00 0.00 56 1017.9
20260505163203 77 133 2.6 8.7 0.00 0.00 0.00 56 1017.9
20260505163104 77 200 5.2 8.7 0.00 0.00 0.00 55 1017.9
20260505163009 77 205 6.1 8.7 0.00 0.00 0.00 55 1017.9
20260505162905 77 196 4.3 9.6 0.00 0.00 0.00 57 1018.0
20260505162803 77 182 2.6 8.7 0.00 0.00 0.00 55 1017.9
20260505162703 77 92 3.5 8.7 0.00 0.00 0.00 56 1018.0
20260505162603 76 204 3.5 8.7 0.00 0.00 0.00 54 1018.0
20260505162506 77 191 4.3 8.7 0.00 0.00 0.00 54 1018.0
20260505162403 77 116 5.2 8.7 0.00 0.00 0.00 54 1018.0
20260505162306 77 207 3.5 7.8 0.00 0.00 0.00 55 1018.1
20260505162203 77 175 1.7 7.8 0.00 0.00 0.00 55 1018.0
20260505162103 77 92 1.7 6.1 0.00 0.00 0.00 56 1018.2
20260505162006 76 174 1.7 7.8 0.00 0.00 0.00 56 1018.2
20260505161803 76 78 3.5 7.8 0.00 0.00 0.00 54 1018.2
20260505161703 76 186 3.5 8.7 0.00 0.00 0.00 56 1018.3
20260505161603 76 169 3.5 8.7 0.00 0.00 0.00 55 1018.2
20260505161506 76 167 3.5 8.7 0.00 0.00 0.00 55 1018.2
20260505161403 76 219 3.5 8.7 0.00 0.00 0.00 57 1018.2
20260505161303 76 231 4.3 8.7 0.00 0.00 0.00 56 1018.3
20260505161203 76 155 4.3 8.7 0.00 0.00 0.00 56 1018.3
20260505161103 76 212 4.3 8.7 0.00 0.00 0.00 56 1018.3
20260505161006 76 177 5.2 8.7 0.00 0.00 0.00 56 1018.3
20260505160904 76 192 5.2 8.7 0.00 0.00 0.00 56 1018.3
20260505160803 76 191 3.5 8.7 0.00 0.00 0.00 57 1018.3
20260505160703 76 198 3.5 7.0 0.00 0.00 0.00 58 1018.2
20260505160403 76 266 2.6 7.0 0.00 0.00 0.00 58 1018.3
20260505160303 76 140 2.6 6.1 0.00 0.00 0.00 59 1018.2
20260505160204 76 117 2.6 6.1 0.00 0.00 0.00 61 1018.2
20260505153203 76 173 3.5 8.7 0.00 0.00 0.00 60 1018.3
20260505153103 76 148 5.2 8.7 0.00 0.00 0.00 60 1018.3
20260505153006 76 205 5.2 8.7 0.00 0.00 0.00 60 1018.4
20260505152903 76 200 5.2 8.7 0.00 0.00 0.00 61 1018.3
20260505152803 76 154 4.3 8.7 0.00 0.00 0.00 60 1018.3
20260505152703 75 144 2.6 8.7 0.00 0.00 0.00 61 1018.3
20260505152604 75 111 3.5 8.7 0.00 0.00 0.00 61 1018.3
20260505152506 75 103 4.3 8.7 0.00 0.00 0.00 63 1018.3
20260505152305 75 88 0.9 5.2 0.00 0.00 0.00 62 1018.3
20260505152204 75 162 0.9 5.2 0.00 0.00 0.00 63 1018.3
20260505151903 75 56 2.6 7.8 0.00 0.00 0.00 62 1018.3
20260505151803 75 221 1.7 7.8 0.00 0.00 0.00 62 1018.3
20260505151403 75 149 2.6 8.7 0.00 0.00 0.00 64 1018.4
20260505151203 74 173 3.5 8.7 0.00 0.00 0.00 65 1018.3
20260505151103 74 59 2.6 8.7 0.00 0.00 0.00 64 1018.3
20260505151006 74 204 1.7 8.7 0.00 0.00 0.00 66 1018.3
20260505150803 74 163 1.7 8.7 0.00 0.00 0.00 64 1018.3